This is the latest recevied weather packets stored in our database for station/object KO6HRZ. If no packets are shown the sender has not sent any weather packets the latest 10 day(s).
| Time | Temp. | Humidity | Pressure | Rain* | Wind** | Luminosity | Snow |
|---|---|---|---|---|---|---|---|
| 1777846903 | 22.22° C | 53% | 1012.2 hPa | 0 mm | - | 442 W/m² | - |
| 1777846299 | 22.78° C | 52% | 1012.1 hPa | 0 mm | - | 425 W/m² | - |
| 1777845698 | 22.78° C | 52% | 1012.3 hPa | 0 mm | - | 742 W/m² | - |
| 1777845097 | 22.22° C | 53% | 1012.4 hPa | 0 mm | - | 828 W/m² | - |
| 1777844497 | 22.78° C | 54% | 1012.2 hPa | 0 mm | - | 887 W/m² | - |
| 1777843893 | 22.22° C | 56% | 1012.4 hPa | 0 mm | - | 831 W/m² | - |
| 1777843288 | 22.78° C | 54% | 1012.2 hPa | 0 mm | - | 753 W/m² | - |
| 1777842687 | 21.67° C | 58% | 1012.7 hPa | 0 mm | - | 623 W/m² | - |
| 1777842086 | 21.67° C | 58% | 1012.8 hPa | 0 mm | - | 751 W/m² | - |
| 1777841484 | 20.56° C | 59% | 1012.9 hPa | 0 mm | - | 821 W/m² | - |
| 1777840885 | 20.56° C | 60% | 1012.9 hPa | 0 mm | - | 535 W/m² | - |
| 1777840279 | 20.56° C | 59% | 1013.1 hPa | 0 mm | - | 629 W/m² | - |
| 1777839674 | 21.11° C | 58% | 1012.9 hPa | 0 mm | - | 1025 W/m² | - |
| 1777839074 | 21.11° C | 58% | 1013 hPa | 0 mm | - | 383 W/m² | - |
| 1777838472 | 22.22° C | 56% | 1012.7 hPa | 0 mm | - | 803 W/m² | - |
| 1777837872 | 21.67° C | 58% | 1012.8 hPa | 0 mm | - | 1024 W/m² | - |
| 1777837269 | 21.67° C | 57% | 1012.8 hPa | 0 mm | - | 758 W/m² | - |
| 1777836668 | 20.56° C | 59% | 1013 hPa | 0 mm | - | 961 W/m² | - |
| 1777836066 | 20° C | 59% | 1013.1 hPa | 0 mm | - | 859 W/m² | - |
| 1777835465 | 20.56° C | 60% | 1013.1 hPa | 0 mm | - | 606 W/m² | - |
| 1777834866 | 20° C | 61% | 1012.9 hPa | 0 mm | - | 781 W/m² | - |
| 1777834262 | 18.89° C | 63% | 1013.2 hPa | 0 mm | - | 479 W/m² | - |
| 1777833660 | 18.33° C | 63% | 1013.4 hPa | 0 mm | - | 453 W/m² | - |
| 1777833060 | 18.89° C | 62% | 1013.2 hPa | 0 mm | - | 495 W/m² | - |
| 1777832456 | 18.89° C | 64% | 1013.2 hPa | 0 mm | - | 565 W/m² | - |
* Rain latest hour (hover to see other rain measurements)
** Current wind speed in m/s (hover to see current wind gust speed)